• In Hungary
  • List of Countries
  • For 7 days
  • Water Temperature
  • Satellite Maps
  • Weather Map
  • News
  • Weather Widgets
  • user-avatar
    Login

    Hourly Weather Marksewo

    Today, 17 October, Wednesday

    Time Temperature Precipitation Wind Pressure Humidity
    00:00 +12°C° 0 mm 1 mps 752 mmHg 62%
    01:00 +11°C° 0 mm 1 mps 752 mmHg 62%
    02:00 +11°C° 0 mm 1 mps 752 mmHg 63%
    03:00 +11°C° 0 mm 1 mps 752 mmHg 64%
    04:00 +11°C° 0 mm 1 mps 752 mmHg 64%
    05:00 +10°C° 0 mm 2 mps 752 mmHg 64%
    06:00 +10°C° 0 mm 2 mps 752 mmHg 64%
    07:00 +10°C° 0 mm 2 mps 752 mmHg 64%
    08:00 +13°C° 0 mm 2 mps 753 mmHg 58%
    09:00 +15°C° 0 mm 2 mps 753 mmHg 52%
    10:00 +17°C° 0 mm 2 mps 753 mmHg 45%
    11:00 +18°C° 0 mm 2 mps 753 mmHg 43%
    12:00 +20°C° 0 mm 2 mps 753 mmHg 40%
    13:00 +21°C° 0 mm 2 mps 752 mmHg 38%
    14:00 +20°C° 0 mm 2 mps 752 mmHg 41%
    15:00 +18°C° 0 mm 2 mps 752 mmHg 45%
    16:00 +18°C° 0 mm 1 mps 752 mmHg 49%
    17:00 +16°C° 0 mm 2 mps 752 mmHg 52%
    18:00 +15°C° 0 mm 2 mps 752 mmHg 54%
    19:00 +14°C° 0 mm 2 mps 752 mmHg 57%
    20:00 +13°C° 0 mm 2 mps 752 mmHg 58%
    21:00 +13°C° 0 mm 2 mps 752 mmHg 60%
    22:00 +12°C° 0 mm 2 mps 752 mmHg 61%
    23:00 +12°C° 0 mm 2 mps 752 mmHg 63%

    Tomorrow, 18 October, Thursday

    Time Temperature Precipitation Wind Pressure Humidity
    00:00 +12°C° 0 mm 2 mps 752 mmHg 64%
    01:00 +10°C° 0 mm 2 mps 752 mmHg 65%
    02:00 +10°C° 0 mm 2 mps 751 mmHg 66%
    03:00 +10°C° 0 mm 2 mps 751 mmHg 68%
    04:00 +10°C° 0 mm 2 mps 751 mmHg 69%
    05:00 +11°C° 0 mm 1 mps 751 mmHg 71%
    06:00 +11°C° 0 mm 1 mps 751 mmHg 72%
    07:00 +11°C° 0 mm 1 mps 751 mmHg 74%
    08:00 +12°C° 0 mm 1 mps 751 mmHg 67%
    09:00 +14°C° 0 mm 1 mps 750 mmHg 60%
    10:00 +16°C° 0 mm 1 mps 750 mmHg 53%
    11:00 +19°C° 0 mm 1 mps 750 mmHg 49%
    12:00 +20°C° 0 mm 1 mps 750 mmHg 46%
    13:00 +21°C° 0 mm 1 mps 750 mmHg 42%
    14:00 +20°C° 0 mm 1 mps 750 mmHg 46%
    15:00 +19°C° 0 mm 1 mps 749 mmHg 49%
    16:00 +18°C° 0 mm 1 mps 749 mmHg 53%
    17:00 +16°C° 0 mm 1 mps 749 mmHg 56%
    18:00 +15°C° 0 mm 1 mps 750 mmHg 59%
    19:00 +14°C° 0 mm 1 mps 750 mmHg 62%
    20:00 +13°C° 0 mm 1 mps 750 mmHg 64%
    21:00 +13°C° 0 mm 1 mps 750 mmHg 66%
    22:00 +12°C° 0 mm 1 mps 750 mmHg 68%
    23:00 +12°C° 0 mm 1 mps 750 mmHg 71%

    Day after tomorrow, 19 October, Friday

    Time Temperature Precipitation Wind Pressure Humidity
    00:00 +12°C° 0 mm 2 mps 750 mmHg 74%
    01:00 +12°C° 0 mm 2 mps 750 mmHg 76%
    02:00 +10°C° 0 mm 2 mps 751 mmHg 80%
    03:00 +10°C° 0 mm 2 mps 751 mmHg 84%
    04:00 +10°C° 0 mm 2 mps 751 mmHg 88%
    05:00 +10°C° 0 mm 2 mps 751 mmHg 90%
    06:00 +10°C° 0 mm 2 mps 751 mmHg 92%
    07:00 +10°C° 0 mm 2 mps 751 mmHg 94%
    08:00 +11°C° 0 mm 3 mps 752 mmHg 89%
    09:00 +12°C° 0 mm 3 mps 752 mmHg 83%
    10:00 +12°C° 0 mm 3 mps 752 mmHg 77%
    11:00 +13°C° 0 mm 3 mps 752 mmHg 72%
    12:00 +14°C° 0 mm 3 mps 752 mmHg 66%
    13:00 +14°C° 0 mm 3 mps 752 mmHg 61%
    14:00 +14°C° 0 mm 3 mps 753 mmHg 63%
    15:00 +13°C° 0 mm 3 mps 753 mmHg 65%
    16:00 +13°C° 0 mm 2 mps 753 mmHg 68%
    17:00 +12°C° 0 mm 2 mps 753 mmHg 73%
    18:00 +9°C° 0 mm 2 mps 753 mmHg 78%
    19:00 +8°C° 0 mm 2 mps 753 mmHg 84%
    20:00 +8°C° 0 mm 2 mps 754 mmHg 86%
    21:00 +7°C° 0 mm 2 mps 754 mmHg 88%
    22:00 +7°C° 0 mm 1 mps 754 mmHg 90%
    23:00 +7°C° 0 mm 1 mps 754 mmHg 91%

    20 October, Saturday

    Time Temperature Precipitation Wind Pressure Humidity
    00:00 +7°C° 0 mm 1 mps 754 mmHg 92%
    01:00 +6°C° 0 mm 1 mps 754 mmHg 93%
    02:00 +6°C° 0 mm 1 mps 754 mmHg 94%
    03:00 +6°C° 0 mm 1 mps 754 mmHg 94%
    04:00 +5°C° 0 mm 1 mps 754 mmHg 94%
    05:00 +5°C° 0 mm 1 mps 755 mmHg 94%
    06:00 +5°C° 0 mm 1 mps 755 mmHg 94%
    07:00 +5°C° 0 mm 1 mps 755 mmHg 94%
    08:00 +7°C° 0 mm 1 mps 755 mmHg 85%
    09:00 +9°C° 0 mm 1 mps 755 mmHg 76%
    10:00 +10°C° 0 mm 1 mps 756 mmHg 67%
    11:00 +10°C° 0 mm 2 mps 756 mmHg 62%
    12:00 +12°C° 0 mm 2 mps 756 mmHg 57%
    13:00 +13°C° 0 mm 2 mps 755 mmHg 53%
    14:00 +12°C° 0 mm 2 mps 755 mmHg 57%
    15:00 +10°C° 0 mm 2 mps 755 mmHg 61%
    16:00 +10°C° 0 mm 2 mps 755 mmHg 65%
    17:00 +9°C° 0 mm 2 mps 755 mmHg 69%
    18:00 +9°C° 0 mm 2 mps 755 mmHg 72%
    19:00 +8°C° 0 mm 2 mps 756 mmHg 76%
    20:00 +8°C° 0 mm 2 mps 756 mmHg 76%
    21:00 +8°C° 0 mm 2 mps 756 mmHg 77%
    22:00 +9°C° 0 mm 2 mps 756 mmHg 77%
    23:00 +8°C° 0.1 mm 2 mps 756 mmHg 78%

    21 October, Sunday

    Time Temperature Precipitation Wind Pressure Humidity
    00:00 +8°C° 0.1 mm 3 mps 755 mmHg 80%
    01:00 +8°C° 0.1 mm 3 mps 755 mmHg 81%
    02:00 +8°C° 0.1 mm 3 mps 755 mmHg 84%
    03:00 +8°C° 0.1 mm 2 mps 755 mmHg 87%
    04:00 +7°C° 0.1 mm 2 mps 755 mmHg 89%
    05:00 +7°C° 0 mm 2 mps 755 mmHg 91%
    06:00 +7°C° 0 mm 2 mps 755 mmHg 93%
    07:00 +6°C° 0 mm 2 mps 755 mmHg 95%
    08:00 +8°C° 0 mm 2 mps 755 mmHg 87%
    09:00 +10°C° 0 mm 2 mps 756 mmHg 79%
    10:00 +12°C° 0 mm 2 mps 756 mmHg 71%
    11:00 +13°C° 0 mm 1 mps 756 mmHg 66%
    12:00 +14°C° 0 mm 1 mps 755 mmHg 61%
    13:00 +14°C° 0 mm 1 mps 755 mmHg 57%
    14:00 +13°C° 0 mm 1 mps 755 mmHg 60%
    15:00 +13°C° 0 mm 1 mps 755 mmHg 63%
    16:00 +12°C° 0 mm 1 mps 755 mmHg 66%
    17:00 +11°C° 0 mm 1 mps 755 mmHg 70%
    18:00 +10°C° 0 mm 1 mps 755 mmHg 74%
    19:00 +9°C° 0 mm 1 mps 755 mmHg 77%
    20:00 +9°C° 0 mm 1 mps 755 mmHg 79%
    21:00 +8°C° 0 mm 1 mps 755 mmHg 80%
    22:00 +7°C° 0 mm 2 mps 755 mmHg 82%
    23:00 +7°C° 0 mm 2 mps 755 mmHg 84%

    22 October, Monday

    Time Temperature Precipitation Wind Pressure Humidity
    00:00 +6°C° 0 mm 2 mps 755 mmHg 85%
    01:00 +6°C° 0 mm 2 mps 755 mmHg 87%
    02:00 +6°C° 0 mm 2 mps 754 mmHg 88%
    03:00 +5°C° 0 mm 3 mps 754 mmHg 90%
    04:00 +5°C° 0 mm 3 mps 754 mmHg 92%
    05:00 +5°C° 0 mm 3 mps 753 mmHg 92%
    06:00 +5°C° 0 mm 3 mps 753 mmHg 92%
    07:00 +5°C° 0 mm 4 mps 753 mmHg 92%
    08:00 +7°C° 0 mm 4 mps 753 mmHg 84%
    09:00 +8°C° 0 mm 5 mps 753 mmHg 76%
    10:00 +10°C° 0 mm 5 mps 753 mmHg 67%
    11:00 +10°C° 0.1 mm 5 mps 753 mmHg 69%
    12:00 +9°C° 0.1 mm 5 mps 753 mmHg 72%
    13:00 +10°C° 0.1 mm 4 mps 753 mmHg 74%
    14:00 +10°C° 0 mm 4 mps 753 mmHg 72%
    15:00 +8°C° 0 mm 4 mps 753 mmHg 70%
    16:00 +9°C° 0 mm 3 mps 753 mmHg 68%
    17:00 +8°C° 0 mm 3 mps 754 mmHg 70%
    18:00 +7°C° 0 mm 3 mps 754 mmHg 72%
    19:00 +6°C° 0 mm 2 mps 754 mmHg 75%
    20:00 +6°C° 0 mm 2 mps 754 mmHg 76%
    21:00 +6°C° 0 mm 2 mps 754 mmHg 78%
    22:00 +5°C° 0 mm 2 mps 754 mmHg 79%
    23:00 +5°C° 0 mm 2 mps 754 mmHg 80%
    Show more